Вернуться в каталог

YAOGAN 16A

АктивенВоенныеLEO
NORAD 39011·PAYLOAD·🇨🇳 China

Запущен Nov 25, 2012 с Jiuquan Satellite Launch Center

Loading…

Ближайшие Пролёты (ближайшие 24 часа)

TLE

СвежийSource: Space-Track

Эпоха: Sep 14, 2026, 10:31 UTC

1 39011U 12066A   26257.43883906 -.00000076  00000-0  13653-4 0  9998
2 39011  63.3521  59.2592 0442623  27.9025 334.4993 13.45521761678151

Отслеживайте YAOGAN 16A в реальном времени с AllMySat

Download on the App Store